www.pogodaiklimat.ru

Погода и климат >> Архив погоды >> Норвегия >> Сёрхьюсен аэропорт


ПОГОДА в Сёрхьюсен аэропорту

  • Прогноз погоды в Сёрхьюсен аэропорту
  • Монитор погоды в Сёрхьюсен аэропорту

АРХИВ ПОГОДЫ в Сёрхьюсен аэропорту

Время (UTC), дата Ветер
(напр.,м/с)
 
Видим.   Явления Облачность Т
(С)
Тd
(С)
f
(%)
Тe
(С)
Тes
(С)
Комфортность P
(гПа)
Po
(гПа)
Тmin
(С)
Tmax
(С)
R
(мм)
R24
(мм)
S
(см)
10 12.09 н/о н/о +12.1 +9.8 86 995.2 994.6
11 12.09 н/о н/о +11.9 +10.6 92 995.5 995.0
12 12.09 н/о н/о +11.8 +10.7 93 995.7 995.1
13 12.09 н/о н/о +11.7 +10.9 95 995.7 995.2
14 12.09 н/о н/о +11.8 +11.2 96 995.7 995.2
15 12.09 н/о н/о +11.8 +11.3 97 995.8 995.2
16 12.09 н/о н/о +11.7 +11.2 97 995.7 995.2
17 12.09 н/о н/о +11.2 +10.7 97 995.5 995.0
18 12.09 н/о н/о +10.4 +8.7 89 995.8 995.3 +10.4 +17.2
19 12.09 н/о н/о +10.4 +8.0 85 996.4 995.8
20 12.09 н/о н/о +9.9 +7.7 86 996.6 996.1
21 12.09 н/о н/о +9.8 +7.4 85 997.0 996.4
22 12.09 н/о н/о +9.5 +7.3 86 996.9 996.3
23 12.09 н/о н/о +9.1 +7.6 90 997.0 996.4
00 13.09 н/о н/о +8.2 +7.5 95 997.2 996.6
01 13.09 н/о н/о +7.9 +7.3 96 997.2 996.6
02 13.09 н/о н/о +7.9 +7.3 96 997.1 996.5
03 13.09 н/о н/о +7.6 +7.0 96 997.2 996.6
04 13.09 н/о н/о +7.7 +7.3 97 997.4 996.8
05 13.09 н/о н/о +8.2 +7.8 97 997.7 997.1
06 13.09 н/о н/о +8.8 +8.2 96 998.1 997.6 +7.4 +10.6
07 13.09 н/о н/о +9.9 +8.5 91 998.6 998.0
08 13.09 н/о н/о +9.8 +6.2 78 998.9 998.4
09 13.09 н/о н/о +10.3 +6.3 76 999.3 998.7
10 13.09 н/о н/о +9.7 +5.9 77 1000.0 999.5
11 13.09 н/о н/о +10.3 +4.2 66 1000.5 1000.0
12 13.09 н/о н/о +10.2 +3.9 65 1001.1 1000.5
13 13.09 н/о н/о +10.0 +3.3 63 1001.6 1001.0
14 13.09 н/о н/о +9.5 +3.5 66 1002.4 1001.8
15 13.09 н/о н/о +9.0 +3.4 68 1002.9 1002.3
16 13.09 н/о н/о +8.4 +4.6 77 1003.6 1003.0
17 13.09 н/о н/о +8.0 +4.8 80 1004.0 1003.4
18 13.09 н/о н/о +8.0 +4.0 76 1004.4 1003.8 +10.7
19 13.09 н/о н/о +8.1 +3.6 73 1004.8 1004.2
20 13.09 н/о н/о +7.6 +4.0 78 1005.1 1004.6
21 13.09 н/о н/о +7.5 +2.8 72 1005.3 1004.7
22 13.09 н/о н/о +7.0 +4.0 81 1005.7 1005.1
23 13.09 н/о н/о +6.8 +4.6 86 1006.1 1005.5
00 14.09 н/о н/о +6.1 +4.1 87 1006.2 1005.6
01 14.09 н/о н/о +5.8 +4.3 90 1006.4 1005.8
02 14.09 Ю 2 н/о н/о +5.6 +4.1 90 +3 +3 1006.5 1005.9
03 14.09 н/о н/о +5.4 +4.1 91 1006.6 1006.0
04 14.09 н/о н/о +4.8 +3.6 92 1006.6 1006.0
05 14.09 н/о н/о +5.1 +3.4 89 1006.7 1006.1
06 14.09 н/о н/о +6.3 +3.8 84 1006.7 1006.1 +4.3 +8.2
07 14.09 н/о н/о +7.0 +3.8 80 1006.8 1006.2
09 14.09 ЮВ 2
{3}
н/о н/о +7.9 +4.3 78 +6 +6 1007.2 1006.6
10 14.09 н/о н/о +10.2 +4.2 66 1007.1 1006.5
11 14.09 н/о н/о +10.5 +2.6 58 1007.0 1006.4
12 14.09 н/о н/о +10.0 +1.9 57 1007.0 1006.4
13 14.09 н/о н/о +9.9 +2.3 59 1006.9 1006.4
14 14.09 н/о н/о +10.3 +3.1 61 1007.0 1006.4
15 14.09 н/о н/о +9.3 +4.1 70 1006.9 1006.3
16 14.09 н/о н/о +7.8 +3.9 76 1006.5 1005.9
17 14.09 н/о н/о +8.4 +3.9 73 1006.2 1005.6
18 14.09 н/о н/о +5.1 +3.0 86 1005.8 1005.2
19 14.09 н/о н/о +4.6 +1.8 82 1005.5 1004.9
20 14.09 н/о н/о +2.7 +1.5 92 1005.1 1004.5
21 14.09 н/о н/о +2.5 +2.1 97 1004.4 1003.7
22 14.09 н/о н/о +1.4 +0.7 95 1003.6 1003.0
23 14.09 н/о н/о +1.7 +1.4 98 1002.9 1002.3
00 15.09 н/о н/о +1.1 +0.7 97 1002.2 1001.6
01 15.09 н/о н/о +0.3 -0.1 97 1001.1 1000.5
02 15.09 н/о н/о +0.6 -0.1 95 1000.0 999.4
03 15.09 н/о н/о +0.2 -0.4 96 999.2 998.6
04 15.09 н/о н/о +3.8 +1.2 83 998.3 997.7
05 15.09 н/о н/о +5.3 +1.3 75 997.6 997.0
06 15.09 н/о н/о +6.4 +2.1 74 996.9 996.3 0.0 +7.3
07 15.09 н/о н/о +7.3 +2.6 72 996.6 996.0
08 15.09 н/о н/о +8.7 +2.3 64 996.3 995.7
09 15.09 н/о н/о +9.2 +2.6 63 996.1 995.6
10 15.09 н/о н/о +9.4 +2.3 61 995.8 995.2
11 15.09 н/о н/о +9.6 +2.2 60 995.9 995.3
12 15.09 н/о н/о +10.1 +2.0 57 995.9 995.4
13 15.09 н/о н/о +10.1 +2.5 59 995.9 995.3
14 15.09 н/о н/о +10.4 +1.8 55 996.1 995.5
15 15.09 н/о н/о +10.3 +1.7 55 996.1 995.5
16 15.09 н/о н/о +10.1 +1.8 56 996.3 995.7
17 15.09 н/о н/о +9.5 +1.4 57 996.5 995.9
18 15.09 н/о н/о +9.2 +0.7 55 996.7 996.1 +6.2 +10.5
19 15.09 н/о н/о +9.2 +0.2 53 997.0 996.4
20 15.09 н/о н/о +8.2 +0.7 59 997.2 996.6
21 15.09 н/о н/о +7.3 +0.3 61 997.6 997.0
22 15.09 н/о н/о +5.9 +0.5 68 998.0 997.4
23 15.09 н/о н/о +5.1 +0.3 71 998.4 997.8
00 16.09 н/о н/о +5.1 -0.1 69 998.9 998.3
01 16.09 н/о н/о +3.6 0.0 77 999.0 998.4
02 16.09 н/о н/о +4.0 +1.2 82 999.2 998.6
03 16.09 н/о н/о +2.7 0.0 82 999.6 999.0
04 16.09 н/о н/о +0.6 -0.7 91 999.5 998.9
05 16.09 н/о н/о -0.2 -0.9 95 999.7 999.1
06 16.09 н/о н/о +1.4 +0.8 96 999.7 999.1 -0.6 +9.5
07 16.09 н/о н/о +3.8 +1.2 83 999.9 999.3
08 16.09 н/о н/о +5.2 +1.7 78 1000.0 999.4
09 16.09 н/о н/о +6.2 +1.9 74 1000.3 999.7
10 16.09 н/о н/о +7.1 +1.6 68 1000.4 999.8
11 16.09 н/о н/о +7.8 +1.4 64 1000.6 1000.0
12 16.09 н/о н/о +7.7 +2.2 68 1000.8 1000.2
13 16.09 н/о н/о +8.2 +3.5 72 1000.8 1000.2
14 16.09 н/о н/о +8.3 +2.6 67 1000.9 1000.3
15 16.09 н/о н/о +7.7 +2.8 71 1001.1 1000.5
16 16.09 н/о н/о +7.6 +3.8 77 1001.2 1000.6
17 16.09 н/о н/о +7.0 +4.5 84 1001.2 1000.6
18 16.09 н/о н/о +6.6 +4.3 85 1001.4 1000.8 +1.5 +8.5
19 16.09 н/о н/о +6.7 +4.5 86 1001.4 1000.8
20 16.09 н/о н/о +5.9 +4.7 92 1001.5 1000.9
21 16.09 н/о н/о +5.5 +4.5 93 1001.7 1001.1
22 16.09 н/о н/о +5.1 +4.1 93 1001.9 1001.3
23 16.09 н/о н/о +5.5 +4.6 94 1002.1 1001.5
00 17.09 н/о н/о +6.1 +4.6 90 1002.3 1001.7
01 17.09 н/о н/о +5.0 +4.1 94 1002.5 1001.9
02 17.09 н/о н/о +4.0 +3.4 96 1002.6 1002.0
03 17.09 н/о н/о +3.4 +2.8 96 1002.8 1002.2
04 17.09 н/о н/о +3.2 +2.8 97 1003.0 1002.4
05 17.09 н/о н/о +3.8 +3.4 97 1003.2 1002.6
06 17.09 н/о н/о +4.8 +4.4 97 1003.4 1002.8 +3.0 +6.7
07 17.09 н/о н/о +5.6 +4.6 93 1003.9 1003.3
08 17.09 н/о н/о +7.5 +4.3 80 1004.2 1003.6
09 17.09 н/о н/о +9.0 +4.2 72 1004.6 1004.0
10 17.09 н/о н/о +8.3 +5.1 80 1004.8 1004.2
11 17.09 н/о н/о +8.9 +3.7 70 1005.1 1004.6
12 17.09 н/о н/о +8.8 +4.2 73 1005.5 1004.9
13 17.09 н/о н/о +9.1 +4.3 72 1005.7 1005.1
14 17.09 н/о н/о +8.7 +4.3 74 1005.9 1005.3
15 17.09 н/о н/о +8.2 +3.7 73 1006.2 1005.6
16 17.09 н/о н/о +8.0 +3.9 75 1006.4 1005.8
17 17.09 н/о н/о +7.8 +4.0 77 1006.5 1005.9
18 17.09 н/о н/о +7.0 +3.4 78 1006.6 1006.0 +4.8 +9.7
19 17.09 н/о н/о +6.3 +4.1 86 1007.0 1006.4
20 17.09 н/о н/о +6.5 +4.3 86 1007.3 1006.7
21 17.09 н/о н/о +5.0 +3.2 88 1007.8 1007.2
22 17.09 н/о н/о +4.2 +2.7 90 1008.0 1007.4
23 17.09 н/о н/о +5.0 +3.7 91 1008.4 1007.8
00 18.09 н/о н/о +4.7 +3.5 92 1008.6 1007.9
01 18.09 н/о н/о +4.5 +3.6 94 1008.7 1008.1
02 18.09 н/о н/о +4.7 +4.0 95 1008.8 1008.2
03 18.09 н/о н/о +4.4 +3.8 96 1009.1 1008.5
04 18.09 н/о н/о +4.4 +3.8 96 1009.5 1008.9
05 18.09 н/о н/о +4.9 +2.9 87 1009.6 1009.0
06 18.09 н/о н/о +4.3 +1.5 82 1010.2 1009.6 +4.1 +7.4
07 18.09 н/о н/о +5.1 +2.1 81 1010.5 1009.9
08 18.09 н/о н/о +6.3 +2.8 78 1010.9 1010.3
09 18.09 н/о н/о +7.2 +0.9 64 1011.2 1010.6
10 18.09 н/о н/о +6.8 +1.9 71 1011.3 1010.7
11 18.09 н/о н/о +6.5 +1.6 71 1011.5 1010.9
12 18.09 н/о н/о +6.6 +1.3 69 1012.0 1011.4
13 18.09 н/о н/о +6.7 +1.2 68 1012.0 1011.4
14 18.09 н/о н/о +5.8 +1.4 73 1012.0 1011.4
15 18.09 н/о н/о +5.6 +1.2 73 1012.1 1011.5
16 18.09 н/о н/о +4.4 +1.6 82 1012.3 1011.7
17 18.09 н/о н/о +3.4 +1.1 85 1012.2 1011.6
18 18.09 н/о н/о +4.1 +1.7 84 1012.3 1011.7 +3.3 +7.7
19 18.09 н/о н/о +3.2 +1.1 86 1012.7 1012.1
20 18.09 н/о н/о +3.5 +0.9 83 1012.8 1012.2
21 18.09 н/о н/о +3.3 +1.0 85 1012.8 1012.2
22 18.09 н/о н/о +3.4 +0.5 81 1012.8 1012.2
23 18.09 н/о н/о +3.5 0.0 78 1012.7 1012.1
00 19.09 н/о н/о +2.9 +0.8 86 1012.3 1011.7
01 19.09 н/о н/о +3.6 0.0 77 1012.1 1011.5
02 19.09 н/о н/о +3.2 +0.6 83 1011.8 1011.2
03 19.09 н/о н/о +2.2 +0.7 90 1011.4 1010.8
04 19.09 н/о н/о +1.8 +0.6 92 1011.2 1010.6
05 19.09 н/о н/о +2.7 +1.4 91 1011.6 1011.0
06 19.09 н/о н/о +3.0 +1.5 90 1011.7 1011.1 +1.8 +4.3
07 19.09 н/о н/о +2.7 +1.2 90 1012.2 1011.6
08 19.09 н/о н/о +4.1 +1.0 80 1012.5 1011.9
09 19.09 н/о н/о +4.5 +0.5 75 1012.6 1012.0

 

Местоположение метеостанции Сёрхьюсен аэропорт (Норвегия): широта 69.79 долгота 20.96 высота над уровнем моря 6 м.

В архиве по умолчанию представлена погода в Сёрхьюсен аэропорту за последнюю неделю. Архивные данные за месяц целиком и за предыдущие месяцы, начиная с января 2011 года, Вы можете получить, выбрав интересующий диапазон дат из раскрывающегося списка и нажав кнопку "Ввод!".


*Определитесь, кто Вы:
робот инопланетянин человек

Внимание! Время в таблицах - всемирное. Для получения местного времени необходимо прибавить поправку, которая равна 1 ч.

Смотрите также архив погоды в соседних городах и на ближайших метеорологических станциях:

Погода в Норднесфьеллете (Норвегия) (32 км)
Погода в Люнгене (Норвегия) (42 км)
Погода в Шиботне (Норвегия) (53 км)
Погода на Маяке Torsvag (Норвегия) (75 км)
Погода в Тромсё (Норвегия) (79 км)
Погода в Тромсё аэропорту (Норвегия) (80 км)
Погода в Тромсё (Холт) (Норвегия) (81 км)
Погода на Саане (Финляндия) (82 км)
Погода в Килписйарви (Финляндия) (83 км)
Погода в Хасвик аэропорту (Норвегия) (90 км)

Пояснения к столбцам:

Ветер - указаны скорость ветра в м/с - средняя за 10 мин, порывы в срок и между сроками (в фигурных скобках) и направление, откуда дует ветер: С - северный, СВ - северо-восточный, В - восточный, ЮВ - юго-восточный, Ю - южный, ЮЗ - юго-западный, З - западный, СЗ - северо-западный.
Видимость - горизонтальная дальность видимости в метрах или километрах. При видимости от 1 до 10 км при отсутствии осадков обычно наблюдается дымка, при ухудшении видимости до 1 км и менее - туман. В сухую погоду видимость может ухудшаться дымом, пылью или мглою.
Явления - указаны атмосферные явления, наблюдавшиеся в срок или в последний час перед сроком; фигурными скобками обозначены явления, наблюдавшиеся между сроками (за 1-3 часа до срока); квадратными скобками обозначены град или гололедные отложения с указанием их диаметра в мм.
Облачность - указаны через наклонную черту общая и нижняя облачность в баллах и высота нижней границы облаков в метрах; квадратными скобками обозначены формы облаков: Ci - перистые, Cs - перисто-слоистые, Cc - перисто-кучевые, Ac - высококучевые, As - высокослоистые, Sc - слоисто-кучевые, Ns - слоисто-дождевые, Cu - кучевые, Cb - кучево-дождевые. Подробнее классификацию облаков см. в Атласе облаков (PDF).
T - Температура воздуха - температура, измеренная на высоте 2 м над землей.
Td - Температура точки росы - температура, при понижении до которой содержащийся в воздухе водяной пар достигнет насыщения.
f - Относительная влажность воздуха - влажноcть воздуха, измеренная на высоте 2 м над землей.
Te - Эффективная температура - температура, которую ощущает одетый по сезону человек в тени. Характеристика душности погоды. При расчете учитывается влияние влажности воздуха и скорости ветра на теплоощущения человека.
Tes - Эффективная температура на солнце - температура, которую ощущает человек, с поправкой на солнечный нагрев. Характеристика знойности погоды. Зависит от высоты солнца над горизонтом, облачности и скорости ветра. Ночью, в пасмурную погоду, а также при ветре 12 м/с и более поправка равна нулю.
P - Атмосферное давление - приведенное к уровню моря атмосферное давление.
Po - Атмосферное давление - измеренное на уровне метеостанции атмосферное давление.
Tmin - Минимальная температура - минимум температуры воздуха на высоте 2 м над землей.
Tmax - Максимальная температура - максимум температуры воздуха на высоте 2 м над землей.
R - Количество осадков - Количество выпавших осадков за период времени, мм. При наведении курсора мыши на число - период времени, за который выпало указанное количество осадков.
R24 - Количество осадков - Количество выпавших осадков за 24 часа, мм.
S - Снежный покров - Высота снежного покрова, см. При наведении курсора мыши на число - состояние снежного покрова и степень покрытия местности в баллах.